When you browse on this site, cookies collect data to enhance your experience and personalize the content and advertising you see.
Visit our Privacy Policy to learn more. By continuing to use the site, you agree to this use of cookies and data.
  • In Hungary
  • List of Countries
  • For 7 days
  • Water Temperature
  • Satellite Maps
  • Weather Map
  • News
  • Weather Widgets
  • user-avatar
    Login

    Hourly Weather Miyadzaki

    Today, 23 January, Wednesday

    Time Temperature Precipitation Wind Pressure Humidity
    00:00 +3°C° 0 mm 3 mps 755 mmHg 75%
    01:00 +3°C° 0 mm 3 mps 755 mmHg 75%
    02:00 +3°C° 0 mm 3 mps 755 mmHg 76%
    03:00 +3°C° 0 mm 3 mps 755 mmHg 76%
    04:00 +3°C° 0 mm 3 mps 755 mmHg 78%
    05:00 +3°C° 0 mm 3 mps 755 mmHg 80%
    06:00 +3°C° 0 mm 3 mps 755 mmHg 82%
    07:00 +4°C° 0 mm 3 mps 756 mmHg 77%
    08:00 +6°C° 0 mm 2 mps 756 mmHg 72%
    09:00 +8°C° 0 mm 2 mps 756 mmHg 60%
    10:00 +10°C° 0 mm 2 mps 756 mmHg 54%
    11:00 +13°C° 0 mm 2 mps 756 mmHg 49%
    12:00 +14°C° 0 mm 3 mps 756 mmHg 43%
    13:00 +14°C° 0 mm 3 mps 756 mmHg 44%
    14:00 +14°C° 0 mm 4 mps 755 mmHg 46%
    15:00 +15°C° 0 mm 5 mps 755 mmHg 47%
    16:00 +13°C° 0 mm 5 mps 755 mmHg 54%
    17:00 +10°C° 0 mm 5 mps 755 mmHg 62%
    18:00 +8°C° 0 mm 4 mps 755 mmHg 69%
    19:00 +8°C° 0 mm 4 mps 755 mmHg 72%
    20:00 +7°C° 0 mm 4 mps 755 mmHg 76%
    21:00 +6°C° 0 mm 4 mps 755 mmHg 80%
    22:00 +6°C° 0 mm 4 mps 755 mmHg 80%
    23:00 +5°C° 0 mm 4 mps 756 mmHg 80%

    Tomorrow, 24 January, Thursday

    Time Temperature Precipitation Wind Pressure Humidity
    00:00 +5°C° 0 mm 3 mps 756 mmHg 79%
    01:00 +5°C° 0 mm 3 mps 755 mmHg 81%
    02:00 +5°C° 0 mm 3 mps 755 mmHg 82%
    03:00 +4°C° 0 mm 3 mps 755 mmHg 83%
    04:00 +4°C° 0 mm 3 mps 755 mmHg 84%
    05:00 +4°C° 0 mm 3 mps 755 mmHg 84%
    06:00 +4°C° 0 mm 3 mps 756 mmHg 85%
    07:00 +6°C° 0 mm 2 mps 756 mmHg 79%
    08:00 +7°C° 0 mm 2 mps 756 mmHg 74%
    09:00 +8°C° 0 mm 2 mps 756 mmHg 68%
    10:00 +10°C° 0 mm 2 mps 757 mmHg 59%
    11:00 +13°C° 0 mm 2 mps 757 mmHg 50%
    12:00 +15°C° 0 mm 1 mps 757 mmHg 42%
    13:00 +16°C° 0 mm 1 mps 756 mmHg 41%
    14:00 +16°C° 0 mm 1 mps 756 mmHg 39%
    15:00 +18°C° 0 mm 1 mps 756 mmHg 38%
    16:00 +15°C° 0 mm 1 mps 756 mmHg 45%
    17:00 +13°C° 0 mm 1 mps 756 mmHg 53%
    18:00 +10°C° 0 mm 2 mps 756 mmHg 60%
    19:00 +9°C° 0 mm 2 mps 757 mmHg 64%
    20:00 +8°C° 0 mm 2 mps 757 mmHg 68%
    21:00 +7°C° 0 mm 2 mps 757 mmHg 72%
    22:00 +6°C° 0 mm 2 mps 757 mmHg 72%
    23:00 +6°C° 0 mm 2 mps 757 mmHg 72%

    Day after tomorrow, 25 January, Friday

    Time Temperature Precipitation Wind Pressure Humidity
    00:00 +6°C° 0 mm 2 mps 757 mmHg 72%
    01:00 +5°C° 0 mm 2 mps 757 mmHg 70%
    02:00 +5°C° 0 mm 2 mps 757 mmHg 68%
    03:00 +5°C° 0 mm 2 mps 757 mmHg 66%
    04:00 +5°C° 0 mm 2 mps 757 mmHg 65%
    05:00 +4°C° 0 mm 2 mps 757 mmHg 64%
    06:00 +4°C° 0 mm 2 mps 756 mmHg 63%
    07:00 +5°C° 0 mm 2 mps 757 mmHg 60%
    08:00 +6°C° 0 mm 2 mps 757 mmHg 57%
    09:00 +8°C° 0 mm 2 mps 757 mmHg 54%
    10:00 +10°C° 0 mm 2 mps 757 mmHg 49%
    11:00 +12°C° 0 mm 3 mps 756 mmHg 45%
    12:00 +14°C° 0 mm 3 mps 756 mmHg 40%
    13:00 +14°C° 0 mm 4 mps 756 mmHg 42%
    14:00 +14°C° 0 mm 4 mps 755 mmHg 43%
    15:00 +14°C° 0 mm 5 mps 755 mmHg 44%
    16:00 +13°C° 0 mm 5 mps 755 mmHg 49%
    17:00 +10°C° 0 mm 5 mps 755 mmHg 54%
    18:00 +8°C° 0 mm 5 mps 755 mmHg 59%
    19:00 +7°C° 0 mm 5 mps 755 mmHg 61%
    20:00 +7°C° 0 mm 5 mps 755 mmHg 63%
    21:00 +6°C° 0 mm 5 mps 755 mmHg 66%
    22:00 +6°C° 0 mm 5 mps 755 mmHg 69%
    23:00 +5°C° 0 mm 5 mps 755 mmHg 72%

    26 January, Saturday

    Time Temperature Precipitation Wind Pressure Humidity
    00:00 +5°C° 0 mm 5 mps 755 mmHg 76%
    01:00 +5°C° 0 mm 5 mps 755 mmHg 74%
    02:00 +3°C° 0 mm 5 mps 755 mmHg 72%
    03:00 +3°C° 0 mm 6 mps 755 mmHg 70%
    04:00 +2°C° 0 mm 6 mps 755 mmHg 70%
    05:00 +2°C° 0 mm 5 mps 755 mmHg 69%
    06:00 +2°C° 0 mm 5 mps 755 mmHg 68%
    07:00 +2°C° 0 mm 5 mps 755 mmHg 62%
    08:00 +2°C° 0 mm 6 mps 755 mmHg 56%
    09:00 +3°C° 0 mm 6 mps 756 mmHg 50%
    10:00 +4°C° 0 mm 6 mps 756 mmHg 46%
    11:00 +7°C° 0 mm 6 mps 756 mmHg 42%
    12:00 +8°C° 0 mm 5 mps 756 mmHg 39%
    13:00 +8°C° 0 mm 6 mps 756 mmHg 40%
    14:00 +8°C° 0 mm 6 mps 755 mmHg 41%
    15:00 +8°C° 0 mm 6 mps 755 mmHg 42%
    16:00 +7°C° 0 mm 6 mps 756 mmHg 45%
    17:00 +5°C° 0 mm 5 mps 756 mmHg 49%
    18:00 +3°C° 0 mm 5 mps 757 mmHg 52%
    19:00 +2°C° 0 mm 5 mps 757 mmHg 54%
    20:00 +1°C° 0 mm 4 mps 758 mmHg 56%
    21:00 0°C° 0 mm 4 mps 759 mmHg 59%
    22:00 0°C° 0 mm 4 mps 759 mmHg 62%
    23:00 +1°C° 0 mm 3 mps 759 mmHg 65%

    27 January, Sunday

    Time Temperature Precipitation Wind Pressure Humidity
    00:00 +1°C° 0 mm 3 mps 759 mmHg 67%
    01:00 0°C° 0 mm 3 mps 759 mmHg 70%
    02:00 0°C° 0 mm 3 mps 759 mmHg 72%
    03:00 0°C° 0 mm 3 mps 759 mmHg 74%
    04:00 +1°C° 0 mm 2 mps 759 mmHg 75%
    05:00 +1°C° 0 mm 2 mps 759 mmHg 77%
    06:00 +1°C° 0 mm 2 mps 760 mmHg 79%
    07:00 +2°C° 0 mm 2 mps 760 mmHg 71%
    08:00 +4°C° 0 mm 2 mps 761 mmHg 64%
    09:00 +5°C° 0 mm 2 mps 761 mmHg 57%
    10:00 +7°C° 0 mm 2 mps 761 mmHg 50%
    11:00 +10°C° 0 mm 1 mps 761 mmHg 43%
    12:00 +12°C° 0 mm 1 mps 761 mmHg 36%
    13:00 +12°C° 0 mm 1 mps 760 mmHg 36%
    14:00 +12°C° 0 mm 2 mps 760 mmHg 37%
    15:00 +12°C° 0 mm 2 mps 759 mmHg 38%
    16:00 +10°C° 0 mm 2 mps 759 mmHg 45%
    17:00 +8°C° 0 mm 3 mps 759 mmHg 51%
    18:00 +7°C° 0 mm 3 mps 759 mmHg 58%
    19:00 +5°C° 0 mm 3 mps 759 mmHg 62%
    20:00 +4°C° 0 mm 3 mps 759 mmHg 66%
    21:00 +3°C° 0 mm 3 mps 759 mmHg 70%
    22:00 +3°C° 0 mm 3 mps 759 mmHg 71%
    23:00 +2°C° 0 mm 3 mps 759 mmHg 72%

    28 January, Monday

    Time Temperature Precipitation Wind Pressure Humidity
    00:00 +2°C° 0 mm 3 mps 759 mmHg 73%
    01:00 +2°C° 0 mm 3 mps 758 mmHg 76%
    02:00 +2°C° 0 mm 3 mps 758 mmHg 79%
    03:00 +3°C° 0 mm 4 mps 758 mmHg 82%
    04:00 +3°C° 0 mm 3 mps 758 mmHg 83%
    05:00 +3°C° 0 mm 3 mps 758 mmHg 85%
    06:00 +4°C° 0 mm 3 mps 758 mmHg 87%
    07:00 +5°C° 0 mm 3 mps 758 mmHg 83%
    08:00 +7°C° 0 mm 3 mps 758 mmHg 78%
    09:00 +9°C° 0 mm 3 mps 758 mmHg 74%
    10:00 +10°C° 0 mm 4 mps 758 mmHg 67%
    11:00 +11°C° 0 mm 4 mps 758 mmHg 59%
    12:00 +13°C° 0 mm 5 mps 758 mmHg 52%
    13:00 +13°C° 0 mm 5 mps 757 mmHg 53%
    14:00 +13°C° 0 mm 6 mps 757 mmHg 54%
    15:00 +11°C° 0 mm 6 mps 757 mmHg 54%
    16:00 +10°C° 0 mm 5 mps 757 mmHg 60%
    17:00 +9°C° 0 mm 5 mps 757 mmHg 66%
    18:00 +7°C° 0 mm 4 mps 757 mmHg 72%
    19:00 +7°C° 0 mm 4 mps 757 mmHg 75%
    20:00 +6°C° 0 mm 4 mps 758 mmHg 78%
    21:00 +5°C° 0 mm 4 mps 758 mmHg 81%
    22:00 +4°C° 0 mm 3 mps 758 mmHg 82%
    23:00 +4°C° 0 mm 3 mps 758 mmHg 82%
    Show more